Location: ???? ????
(41.4149°N, 22.8816°E)
Time: 14:55:48
(UTC+00:00)

Cosmos 1741 Rocket - Pass Details

Date: 14 July 2020
Orbit: 761 x 783 km, 74.0° (Epoch: 03 August)

Event Time Altitude Azimuth Distance (km) Brightness Sun altitude
Exits shadow 01:23:57 21° 192° (SSW) 1,646 5.2 -15.7°
Maximum altitude 01:27:26 80° 108° (ESE) 777 4.0 -15.3°
Drops below altitude 10° 01:32:40 10° 22° (NNE) 2,306 7.6 -14.6°
Sets 01:35:03 0° 21° (NNE) 3,239 8.6 -14.3°
